Regional Weather Roundup
Issued by NWS

Home | Current Version | Previous Version | Graphics & Text | Print | Product List | Glossary On
Versions: 1 2 3 4 5 6 7 8 9 10 11 12 13 14 15 16 17 18 19 20 21 22 23 24 25 26 27 28 29 30 31 32 33 34 35 36 37 38 39 40 41 42 43 44 45 46 47 48 49 50
000
ASUS43 KMKX 150800
RWRWI

WISCONSIN REGIONAL WEATHER ROUNDUP
NATIONAL WEATHER SERVICE MILWAUKEE/SULLIVAN WI
200 AM CST FRI DEC 15 2017

NOTE: "FAIR" INDICATES FEW OR NO CLOUDS BELOW 12,000 FEET WITH NO
SIGNIFICANT WEATHER AND/OR OBSTRUCTIONS TO VISIBILITY.

WIZ001-002-006>008-014>016-023>028-150900-
NORTHWEST WISCONSIN

CITY           SKY/WX    TMP DP  RH WIND       PRES   REMARKS
SUPERIOR ARPT  CLOUDY    15   9  74 W8        29.91S WCI   5
ASHLAND        CLOUDY    15   9  76 W7        29.87S WCI   5
HAYWARD        CLOUDY    15   9  76 CALM      29.86S
SIREN          MOCLDY    17  11  78 NW7       29.90F WCI   7
CUMBERLAND     LGT SNOW  19  14  79 NW10      29.86F WCI   8
RICE LAKE      LGT SNOW  19  15  85 CALM      29.89F
CHETEK         CLOUDY    19  15  84 W8        29.88F WCI   9
LADYSMITH      LGT SNOW  18  15  89 W7        29.85F WCI   9
EAU CLAIRE     FLURRIES  20  14  77 W13       29.89F WCI   7
MENOMONIE      FLURRIES  22  15  75 W14       29.91S WCI   9
NEW RICHMOND   CLOUDY    20  13  74 W10       29.91F WCI   9
OSCEOLA        CLOUDY    20  14  76 W7        29.95F WCI  11
$$

WIZ003>005-009-010-017-018-150900-
NORTH CENTRAL WISCONSIN

CITY           SKY/WX    TMP DP  RH WIND       PRES   REMARKS
MANITOWISH WTR LGT SNOW  13  11  93 W7        29.78S WCI   3
ARBOR VITAE    LGT SNOW  17  14  88 W5        29.77F WCI  10
WOODRUFF       LGT SNOW  17  14  88 W5        29.77F WCI  10
RHINELANDER    LGT SNOW  15  12  88 W10       29.78S FOG     WCI   2
EAGLE RIVER    LGT SNOW  14  10  82 W9        29.75F WCI   2
LAND O LAKES   LGT SNOW  15  11  86 W5        29.76F WCI   7
PHILLIPS       LGT SNOW  14  13  93 W3        29.80F
TOMAHAWK       LGT SNOW  15  12  87 W5        29.81F WCI   7
MEDFORD        LGT SNOW  16  13  88 W6        29.81F WCI   7
MERRILL        LGT SNOW  17  13  86 W8        29.82F WCI   6
$$

WIZ029-030-035-036-043>047-150900-
CENTRAL WISCONSIN

CITY           SKY/WX    TMP DP  RH WIND       PRES   REMARKS
WAUSAU         LGT SNOW  17  13  84 W7        29.82S FOG     WCI   8
MOSINEE        FLURRIES  18  14  86 W8        29.84F WCI   7
MARSHFIELD     LGT SNOW  18  14  84 W8        29.83F FOG     WCI   8
STEVENS POINT  FLURRIES  17  11  77 W7        29.86F WCI   8
WAUPACA        FLURRIES  23  17  77 W10       29.88S WCI  12
WAUTOMA        FLURRIES  21  16  81 W12       29.89F WCI   9
WISC RAPIDS    CLOUDY    20  11  68 W7        29.88F WCI  11
CAMP DOUGLAS   NOT AVBL
$$

WIZ011>013-019>022-031-037>040-048>050-150900-
NORTHEAST WISCONSIN

CITY           SKY/WX    TMP DP  RH WIND       PRES   REMARKS
ANTIGO         FLURRIES  16  13  90 W8        29.79F WCI   5
SHAWANO        LGT SNOW  22  18  86 W3        29.84F
OCONTO         CLOUDY    20  17  86 W6        29.85F WCI  13
STURGEON BAY   LGT SNOW  21  18  88 W10       29.84F FOG     WCI  10
GREEN BAY      CLOUDY    21  16  81 SW7       29.86F WCI  12
MANITOWOC      FLURRIES  21  15  78 SW8       29.87F WCI  11
APPLETON       FLURRIES  21  16  79 W14       29.84F WCI   8
CLINTONVILLE   CLOUDY    21  16  79 W8        29.86S WCI  12
OSHKOSH        LGT SNOW  22  17  81 W6        29.87F WCI  14
$$

WIZ032>034-041-042-053>061-150900-
SOUTHWEST WISCONSIN

CITY           SKY/WX    TMP DP  RH WIND       PRES   REMARKS
LA CROSSE      CLOUDY    25  17  72 W12       29.93F WCI  14
SPARTA         FLURRIES  21  16  81 W3        29.92F
VIROQUA        CLOUDY    21  19  89 W9        29.90F WCI  11
BOSCOBEL       CLOUDY    25  18  74 W5        29.96F WCI  19
PRAIRIE DU CHI CLOUDY    27  18  70 W10       29.96F WCI  17
PLATTEVILLE    CLOUDY    25  18  77 NW14      29.95F WCI  13
$$

WIZ056-057-062-063-064-067-068-150900-
SOUTH CENTRAL WISCONSIN

CITY           SKY/WX    TMP DP  RH WIND       PRES   REMARKS
REEDSBURG      CLOUDY    22  14  73 W12G22    29.91S WCI  10
BARABOO/DELLS  CLOUDY    23  17  78 NW9       29.89F WCI  13
LONE ROCK      NOT AVBL
MINERAL POINT  FLURRIES  25  19  80 NW12G20   29.92S WCI  14
MADISON        CLOUDY    24  17  74 NW7G17    29.90F WCI  16
MIDDLETON      CLOUDY    26  19  76 W14G20    29.91S WCI  14
WATERTOWN      CLOUDY    23  18  80 SW5       29.90F WCI  17
MONROE         CLOUDY    25  19  80 W14       29.91F WCI  13
JANESVILLE     CLOUDY    27  18  69 SW12      29.92F WCI  16
$$

WIZ051-052-058>065-066-070>072-150900-
SOUTHEAST WISCONSIN

CITY           SKY/WX    TMP DP  RH WIND       PRES   REMARKS
MILWAUKEE      CLOUDY    23  15  71 SW9       29.91F WCI  13
WAUKESHA       CLOUDY    21  14  73 SW7       29.91F WCI  13
MILWAUKEE/TIMM CLOUDY    23  12  63 SW8       29.91F WCI  14
RACINE         CLOUDY    23  15  71 SW8       29.94F WCI  14
BURLINGTON     MOCLDY    22  18  83 SW7       29.92F WCI  14
KENOSHA        CLOUDY    24  15  68 SW12      29.93F WCI  13
FOND DU LAC    FLURRIES  23  15  71 W7        29.87F WCI  15
SHEBOYGAN      CLOUDY    20  15  81 SW8       29.87F WCI  10
WEST BEND      CLOUDY    23  16  74 SW8       29.88F WCI  14
JUNEAU         CLOUDY    22  16  77 SW8       29.90F WCI  12
$$

LSZ147-162-150900-
LAKE SUPERIOR

STATION/POSITION TIME  TEMP    WIND        PRES    WAVE
                       AIR SEA DIR/SP/G            HT/PER
                 (UTC) (F)     (DEG/KT/KT) (MB)    (FT/S)
DEVILS ISLAND    0700   18     290/ 13/ 15 1012.2F
SAXON HARBOR     0740   16                 1010.8F
$$

LMZ867-665-643>646-150900-
LAKE MICHIGAN

STATION/POSITION TIME  TEMP    WIND        PRES    WAVE
                       AIR SEA DIR/SP/G            HT/PER
                 (UTC) (F)     (DEG/KT/KT) (MB)    (FT/S)
NORTHPORT PIER   0740   22     260/  4/ 10 1010.2F
KEWAUNEE LAKESHO 0730   20     210/  8/ 12 1010.6F
SHEBOYGAN LAKESH 0700   22     220/ 11/ 13 1013.5F
PORT WASHINGTON  0730   22     230/  5/  9 1013.9F
MILWAUKEE LAKESH 0730   23     230/  8/  9   N/A
KENOSHA   LAKESH 0700   23     230/  8/ 14 1014.6
$$

TC  - TEMPERATURE IN CELSIUS
VSB - VISIBILITY IN STATUTE MILES
WCI - WIND CHILL INDEX
HX  - HEAT INDEX




USA.gov is the U.S. government's official web portal to all federal, state and local government web resources and services.